Regional Weather Roundup
Issued by NWS

Home | Current Version | Previous Version | Graphics & Text | Print | Product List | Glossary On
Versions: 1 2 3 4 5 6 7 8 9 10 11 12 13 14 15 16 17 18 19 20 21 22 23 24 25 26 27 28 29 30 31 32 33 34 35 36 37 38 39 40 41 42 43 44 45 46 47 48 49 50
000
ASUS43 KLSX 180207
RWRMO

WEATHER SUMMARY FOR MISSOURI
NATIONAL WEATHER SERVICE SPRINGFIELD MO
800 PM CST SAT FEB 17 2018

NOTE: "FAIR" INDICATES FEW OR NO CLOUDS BELOW 12,000 FEET WITH NO
       SIGNIFICANT WEATHER AND/OR OBSTRUCTIONS TO VISIBILITY.
       CURRENT SKY AND/OR WEATHER CONDITIONS ARE NOT AVAILABLE FOR
       CHILLICOTHE AND FARMINGTON.

MOZ001>031-035>038-043-044-053-054-180300-
...NORTHERN AND WESTERN MISSOURI...

CITY           SKY/WX    TMP DP  RH WIND       PRES   REMARKS
KANSAS CTY INT CLEAR     43  19  38 CALM      30.17R
KANSAS C DTWN  CLEAR     42  22  44 CALM      30.17R
LEE`S SUMMIT   CLEAR     45  20  36 SE3       30.17R
ST JOSEPH      CLEAR     29  19  66 N3        30.18R
CHILLICOTHE      N/A     28  18  66 CALM      30.18R
KIRKSVILLE     CLEAR     34  23  64 CALM      30.17R

$$
MOZ066>068-077>081-088>096-101>105-180300-
...SOUTHWEST MISSOURI...

CITY           SKY/WX    TMP DP  RH WIND       PRES   REMARKS
SPRINGFIELD    CLEAR     34  31  88 CALM      30.18R
JOPLIN         CLEAR     43  37  79 S5        30.19R
BRANSON        CLEAR     39  37  93 CALM      30.22R

$$
MOZ032>034-039>042-045>050-055>058-069>072-180300-
...CENTRAL MISSOURI...

CITY           SKY/WX    TMP DP  RH WIND       PRES   REMARKS
COLUMBIA       CLEAR     37  22  54 W3        30.19R
JEFFERSON CITY CLEAR     36  30  79 CALM      30.20R
ROLLA          CLEAR     38  33  82 W6        30.18R
SEDALIA        CLEAR     45  24  43 CALM      30.20R
WHITEMAN AFB   CLEAR     39  19  45 CALM      30.14R
WARRENSBURG    CLEAR     41  19  42 CALM      30.18S
OSAGE BEACH    CLEAR     36  31  82 S5        30.20R

$$
MOZ051-052-059>065-180300-
...EAST CENTRAL MISSOURI...

CITY           SKY/WX    TMP DP  RH WIND       PRES   REMARKS
ST LOUIS INTL  CLEAR     36  34  92 W6        30.18R
SPIRIT OF STL  CLEAR     31  31 100 CALM      30.17R
ST CHARLES     CLEAR     33  31  92 S3        30.18R

$$
MOZ072>076-082>087-097>100-106>115-180300-
...SOUTH CENTRAL AND SOUTHEAST MISSOURI...

CITY           SKY/WX    TMP DP  RH WIND       PRES   REMARKS
CAPE GIRARDEAU FAIR      38  36  92 CALM      30.21R
FARMINGTON     CLEAR     35  34  96 CALM      30.19R
POPLAR BLUFF   FAIR      40  39  97 SW5       30.22R
WEST PLAINS    CLEAR     36  34  92 SW3       30.21R

$$



USA.gov is the U.S. government's official web portal to all federal, state and local government web resources and services.